| time (UTC) | temp F | wind direction | speed knots | gust knots | rain 1hr in | rain 24hr in | rain mn in | humidity % | barometer mb |
| 20260504220947 | 87 | 350 | 0.0 | 3.5 | 0.00 | 0.00 | 0.00 | 46 | 1013.0 |
| 20260504220436 | 87 | 7 | 0.0 | 2.6 | 0.00 | 0.00 | 0.00 | 46 | 1013.0 |
| 20260504220100 | 87 | 358 | 0.0 | 2.6 | 0.00 | 0.00 | 0.00 | 46 | 1013.0 |
| 20260504215929 | 87 | 105 | 0.0 | 0.9 | 0.00 | 0.00 | 0.00 | 46 | 1013.0 |
| 20260504215443 | 87 | 131 | 0.0 | 0.9 | 0.00 | 0.00 | 0.00 | 45 | 1013.0 |
| 20260504214932 | 86 | 131 | 0.0 | 0.9 | 0.00 | 0.00 | 0.00 | 46 | 1012.9 |
| 20260504214556 | 85 | 143 | 0.0 | 0.9 | 0.00 | 0.00 | 0.00 | 46 | 1012.9 |
| 20260504214441 | 86 | 143 | 0.0 | 0.9 | 0.00 | 0.00 | 0.00 | 46 | 1012.9 |
| 20260504213935 | 86 | 156 | 0.0 | 0.9 | 0.00 | 0.00 | 0.00 | 45 | 1013.0 |
| 20260504213441 | 86 | 169 | 0.0 | 0.9 | 0.00 | 0.00 | 0.00 | 47 | 1013.0 |
| 20260504213041 | 85 | 155 | 0.0 | 1.7 | 0.00 | 0.00 | 0.00 | 47 | 1013.0 |
| 20260504212930 | 85 | 161 | 0.0 | 1.7 | 0.00 | 0.00 | 0.00 | 47 | 1013.1 |
| 20260504212427 | 85 | 130 | 0.0 | 1.7 | 0.00 | 0.00 | 0.00 | 47 | 1013.1 |
| 20260504211936 | 85 | 141 | 0.0 | 0.9 | 0.00 | 0.00 | 0.00 | 46 | 1013.1 |
| 20260504211635 | 84 | 129 | 0.0 | 0.9 | 0.00 | 0.00 | 0.00 | 46 | 1013.0 |
| 20260504211435 | 85 | 91 | 0.0 | 0.9 | 0.00 | 0.00 | 0.00 | 46 | 1013.1 |
| 20260504210925 | 85 | 214 | 0.0 | 0.9 | 0.00 | 0.00 | 0.00 | 45 | 1013.0 |
| 20260504210441 | 85 | 195 | 0.0 | 0.9 | 0.00 | 0.00 | 0.00 | 45 | 1012.9 |
| 20260504210011 | 85 | 87 | 0.0 | 1.7 | 0.00 | 0.00 | 0.00 | 45 | 1012.9 |
| 20260504205928 | 86 | 335 | 0.0 | 1.7 | 0.00 | 0.00 | 0.00 | 45 | 1013.0 |
| 20260504205437 | 86 | 122 | 0.0 | 1.7 | 0.00 | 0.00 | 0.00 | 44 | 1013.0 |
| 20260504204931 | 86 | 248 | 0.0 | 0.9 | 0.00 | 0.00 | 0.00 | 42 | 1012.9 |
| 20260504204619 | 86 | 171 | 0.0 | 0.9 | 0.00 | 0.00 | 0.00 | 42 | 1013.0 |
| 20260504204440 | 86 | 150 | 0.0 | 0.9 | 0.00 | 0.00 | 0.00 | 43 | 1013.0 |
| 20260504203933 | 86 | 169 | 0.0 | 4.3 | 0.00 | 0.00 | 0.00 | 43 | 1013.1 |
| 20260504203437 | 87 | 232 | 0.0 | 4.3 | 0.00 | 0.00 | 0.00 | 42 | 1013.3 |
| 20260504203102 | 87 | 187 | 0.9 | 4.3 | 0.00 | 0.00 | 0.00 | 42 | 1013.1 |
| 20260504202925 | 87 | 51 | 0.0 | 0.9 | 0.00 | 0.00 | 0.00 | 42 | 1013.1 |
| 20260504202440 | 87 | 55 | 0.0 | 0.9 | 0.00 | 0.00 | 0.00 | 43 | 1013.3 |
| 20260504201929 | 87 | 36 | 0.0 | 2.6 | 0.00 | 0.00 | 0.00 | 43 | 1013.2 |
| 20260504201521 | 86 | 45 | 0.0 | 2.6 | 0.00 | 0.00 | 0.00 | 42 | 1013.2 |
| 20260504201426 | 87 | 91 | 0.0 | 2.6 | 0.00 | 0.00 | 0.00 | 42 | 1013.3 |
| 20260504200934 | 87 | 159 | 0.0 | 1.7 | 0.00 | 0.00 | 0.00 | 41 | 1013.4 |
| 20260504200431 | 87 | 44 | 0.0 | 0.9 | 0.00 | 0.00 | 0.00 | 43 | 1013.4 |
| 20260504200010 | 86 | 37 | 0.0 | 0.9 | 0.00 | 0.00 | 0.00 | 41 | 1013.5 |
| 20260504195939 | 87 | 36 | 0.0 | 0.9 | 0.00 | 0.00 | 0.00 | 41 | 1013.5 |
| 20260504195428 | 86 | 140 | 0.0 | 0.9 | 0.00 | 0.00 | 0.00 | 42 | 1013.5 |
| 20260504194941 | 86 | 153 | 0.0 | 1.7 | 0.00 | 0.00 | 0.00 | 42 | 1013.6 |
| 20260504194613 | 86 | 217 | 0.0 | 2.6 | 0.00 | 0.00 | 0.00 | 42 | 1013.6 |
| 20260504194431 | 86 | 195 | 0.0 | 2.6 | 0.00 | 0.00 | 0.00 | 43 | 1013.8 |
| 20260504193947 | 86 | 124 | 0.0 | 0.9 | 0.00 | 0.00 | 0.00 | 42 | 1013.7 |
| 20260504193433 | 86 | 152 | 0.0 | 0.9 | 0.00 | 0.00 | 0.00 | 41 | 1013.9 |
| 20260504193051 | 85 | 146 | 0.0 | 0.9 | 0.00 | 0.00 | 0.00 | 41 | 1014.0 |
| 20260504192947 | 86 | 146 | 0.0 | 0.9 | 0.00 | 0.00 | 0.00 | 41 | 1014.1 |
| 20260504192434 | 86 | 164 | 0.0 | 0.9 | 0.00 | 0.00 | 0.00 | 41 | 1014.1 |
| 20260504191942 | 87 | 39 | 0.0 | 0.9 | 0.00 | 0.00 | 0.00 | 41 | 1014.0 |
| 20260504191642 | 86 | 65 | 0.0 | 0.9 | 0.00 | 0.00 | 0.00 | 41 | 1013.9 |
| 20260504191439 | 87 | 17 | 0.0 | 0.9 | 0.00 | 0.00 | 0.00 | 41 | 1014.1 |
| 20260504190925 | 87 | 30 | 0.0 | 1.7 | 0.00 | 0.00 | 0.00 | 41 | 1014.2 |
| 20260504190439 | 87 | 2 | 0.0 | 1.7 | 0.00 | 0.00 | 0.00 | 41 | 1014.2 |
| 20260504190013 | 87 | 121 | 0.0 | 0.9 | 0.00 | 0.00 | 0.00 | 40 | 1014.2 |
| 20260504185927 | 87 | 175 | 0.0 | 0.9 | 0.00 | 0.00 | 0.00 | 41 | 1014.3 |
| 20260504185434 | 87 | 276 | 0.0 | 0.9 | 0.00 | 0.00 | 0.00 | 40 | 1014.3 |
| 20260504184927 | 86 | 41 | 0.0 | 1.7 | 0.00 | 0.00 | 0.00 | 43 | 1014.3 |
| 20260504184601 | 85 | 39 | 0.0 | 1.7 | 0.00 | 0.00 | 0.00 | 42 | 1014.4 |
| 20260504184433 | 86 | 360 | 0.0 | 2.6 | 0.00 | 0.00 | 0.00 | 43 | 1014.5 |
| 20260504183945 | 86 | 43 | 0.0 | 3.5 | 0.00 | 0.00 | 0.00 | 41 | 1014.7 |
| 20260504183433 | 86 | 44 | 0.9 | 3.5 | 0.00 | 0.00 | 0.00 | 41 | 1014.7 |
| 20260504183048 | 86 | 203 | 0.0 | 0.9 | 0.00 | 0.00 | 0.00 | 41 | 1014.8 |
| 20260504182946 | 86 | 203 | 0.0 | 2.6 | 0.00 | 0.00 | 0.00 | 40 | 1014.9 |
| 20260504182432 | 86 | 198 | 0.0 | 2.6 | 0.00 | 0.00 | 0.00 | 41 | 1015.1 |
| 20260504181940 | 86 | 325 | 0.0 | 2.6 | 0.00 | 0.00 | 0.00 | 41 | 1015.1 |
| 20260504181639 | 85 | 41 | 0.0 | 2.6 | 0.00 | 0.00 | 0.00 | 42 | 1015.1 |
| 20260504181437 | 86 | 345 | 0.0 | 0.9 | 0.00 | 0.00 | 0.00 | 43 | 1015.2 |
| 20260504180924 | 85 | 143 | 0.0 | 0.9 | 0.00 | 0.00 | 0.00 | 44 | 1015.4 |
| 20260504180434 | 85 | 351 | 0.0 | 0.9 | 0.00 | 0.00 | 0.00 | 42 | 1015.4 |
| 20260504180007 | 85 | 259 | 0.0 | 2.6 | 0.00 | 0.00 | 0.00 | 43 | 1015.3 |
| 20260504175924 | 85 | 192 | 0.0 | 2.6 | 0.00 | 0.00 | 0.00 | 42 | 1015.4 |
| 20260504175432 | 85 | 44 | 0.0 | 2.6 | 0.00 | 0.00 | 0.00 | 43 | 1015.3 |
| 20260504174925 | 86 | 355 | 0.0 | 2.6 | 0.00 | 0.00 | 0.00 | 41 | 1015.5 |
| 20260504174600 | 86 | 321 | 0.0 | 2.6 | 0.00 | 0.00 | 0.00 | 41 | 1015.3 |
| 20260504174433 | 86 | 18 | 0.0 | 0.9 | 0.00 | 0.00 | 0.00 | 42 | 1015.4 |
| 20260504173948 | 86 | 4 | 0.0 | 1.7 | 0.00 | 0.00 | 0.00 | 42 | 1015.6 |
| 20260504173435 | 87 | 349 | 0.0 | 0.9 | 0.00 | 0.00 | 0.00 | 41 | 1015.6 |
| 20260504173047 | 87 | 217 | 0.0 | 0.9 | 0.00 | 0.00 | 0.00 | 41 | 1015.6 |
| 20260504172948 | 87 | 105 | 0.0 | 0.9 | 0.00 | 0.00 | 0.00 | 41 | 1015.5 |
| 20260504172438 | 87 | 51 | 0.0 | 1.7 | 0.00 | 0.00 | 0.00 | 41 | 1015.6 |
| 20260504171925 | 88 | 63 | 0.0 | 1.7 | 0.00 | 0.00 | 0.00 | 39 | 1015.6 |
| 20260504171640 | 87 | 234 | 0.0 | 0.9 | 0.00 | 0.00 | 0.00 | 39 | 1015.6 |
| 20260504171423 | 88 | 275 | 0.0 | 0.9 | 0.00 | 0.00 | 0.00 | 40 | 1015.8 |
| 20260504170930 | 88 | 141 | 0.0 | 2.6 | 0.00 | 0.00 | 0.00 | 40 | 1015.7 |
| 20260504170445 | 87 | 15 | 0.0 | 2.6 | 0.00 | 0.00 | 0.00 | 40 | 1015.8 |
| 20260504160442 | 85 | 105 | 0.0 | 2.6 | 0.00 | 0.00 | 0.00 | 43 | 1016.6 |
| 20260504150933 | 82 | 27 | 0.0 | 3.5 | 0.00 | 0.00 | 0.00 | 49 | 1016.8 |
| 20260504150448 | 81 | 14 | 0.0 | 2.6 | 0.00 | 0.00 | 0.00 | 49 | 1016.8 |
| 20260504140938 | 79 | 125 | 0.0 | 1.7 | 0.00 | 0.00 | 0.00 | 60 | 1016.6 |
| 20260504140423 | 78 | 49 | 0.0 | 5.2 | 0.00 | 0.00 | 0.00 | 61 | 1016.6 |
| 20260504130441 | 71 | 94 | 0.0 | 3.5 | 0.00 | 0.00 | 0.00 | 71 | 1016.3 |
| 20260504110427 | 64 | 22 | 0.0 | 0.9 | 0.00 | 0.00 | 0.00 | 82 | 1015.6 |
| 20260504100436 | 64 | 18 | 0.0 | 0.9 | 0.00 | 0.00 | 0.00 | 82 | 1015.4 |
| 20260504081925 | 66 | 13 | 0.0 | 1.7 | 0.00 | 0.00 | 0.00 | 80 | 1015.0 |
| 20260504081442 | 66 | 17 | 0.0 | 1.7 | 0.00 | 0.00 | 0.00 | 80 | 1015.1 |
| 20260504080929 | 67 | 354 | 0.0 | 1.7 | 0.00 | 0.00 | 0.00 | 80 | 1015.1 |
| 20260504080437 | 67 | 17 | 0.0 | 1.7 | 0.00 | 0.00 | 0.00 | 80 | 1015.2 |
| 20260504050443 | 69 | 13 | 0.0 | 0.0 | 0.00 | 0.01 | 0.00 | 77 | 1015.8 |
| 20260504050024 | 68 | 13 | 0.0 | 0.0 | 0.00 | 0.01 | 0.00 | 77 | 1015.8 |
| 20260504045930 | 69 | 13 | 0.0 | 0.0 | 0.00 | 0.01 | 0.00 | 77 | 1015.9 |
| 20260504045435 | 69 | 13 | 0.0 | 0.0 | 0.00 | 0.01 | 0.00 | 77 | 1016.2 |
| 20260504044930 | 69 | 13 | 0.0 | 0.0 | 0.00 | 0.01 | 0.00 | 77 | 1016.4 |
| 20260504044514 | 69 | 13 | 0.0 | 0.9 | 0.00 | 0.01 | 0.00 | 77 | 1016.4 |
| 20260504044436 | 69 | 13 | 0.0 | 0.9 | 0.00 | 0.01 | 0.00 | 77 | 1016.5 |
| 20260504043923 | 69 | 13 | 0.0 | 0.9 | 0.00 | 0.01 | 0.00 | 77 | 1016.5 |
| 20260504043437 | 69 | 11 | 0.0 | 0.0 | 0.00 | 0.01 | 0.00 | 77 | 1016.6 |
| 20260504043111 | 69 | 11 | 0.0 | 0.9 | 0.00 | 0.01 | 0.00 | 77 | 1016.6 |
| 20260504042927 | 69 | 11 | 0.0 | 0.9 | 0.00 | 0.01 | 0.00 | 77 | 1016.6 |
| 20260504042439 | 69 | 11 | 0.0 | 0.9 | 0.00 | 0.01 | 0.00 | 77 | 1016.7 |
| 20260504041925 | 69 | 11 | 0.0 | 0.0 | 0.00 | 0.01 | 0.00 | 76 | 1016.8 |
| 20260504041652 | 69 | 11 | 0.0 | 0.0 | 0.00 | 0.01 | 0.00 | 76 | 1016.7 |
| 20260504041442 | 70 | 11 | 0.0 | 0.0 | 0.00 | 0.01 | 0.00 | 77 | 1016.8 |
| 20260504040929 | 70 | 11 | 0.0 | 0.0 | 0.00 | 0.01 | 0.00 | 76 | 1016.9 |
| 20260504040435 | 70 | 11 | 0.0 | 0.0 | 0.00 | 0.01 | 0.00 | 75 | 1017.0 |
| 20260504040023 | 70 | 11 | 0.0 | 0.0 | 0.00 | 0.01 | 0.01 | 75 | 1016.9 |
| 20260504035928 | 70 | 11 | 0.0 | 0.0 | 0.00 | 0.01 | 0.01 | 75 | 1016.9 |
| 20260504035437 | 70 | 11 | 0.0 | 0.9 | 0.00 | 0.01 | 0.01 | 75 | 1017.0 |
| 20260504034928 | 70 | 11 | 0.0 | 0.0 | 0.00 | 0.01 | 0.01 | 75 | 1017.0 |
| 20260504034516 | 70 | 24 | 0.0 | 0.0 | 0.00 | 0.01 | 0.01 | 75 | 1016.9 |
| 20260504034422 | 70 | 23 | 0.0 | 0.0 | 0.00 | 0.01 | 0.01 | 75 | 1017.0 |
| 20260504033930 | 70 | 24 | 0.0 | 0.0 | 0.00 | 0.01 | 0.01 | 75 | 1016.9 |
| 20260504033446 | 70 | 24 | 0.0 | 0.0 | 0.00 | 0.01 | 0.01 | 75 | 1016.8 |
| 20260504033009 | 70 | 24 | 0.0 | 0.9 | 0.00 | 0.01 | 0.01 | 75 | 1016.8 |
| 20260504032934 | 71 | 24 | 0.0 | 0.9 | 0.00 | 0.01 | 0.01 | 75 | 1016.8 |
| 20260504032422 | 71 | 24 | 0.0 | 0.9 | 0.00 | 0.01 | 0.01 | 74 | 1016.8 |
| 20260504031937 | 71 | 23 | 0.0 | 0.9 | 0.00 | 0.01 | 0.01 | 74 | 1016.7 |
| 20260504031430 | 71 | 52 | 0.0 | 0.9 | 0.00 | 0.01 | 0.01 | 74 | 1016.7 |
| 20260504030943 | 71 | 53 | 0.0 | 0.9 | 0.00 | 0.01 | 0.01 | 74 | 1016.7 |
| 20260504030431 | 71 | 51 | 0.0 | 0.9 | 0.00 | 0.01 | 0.01 | 74 | 1016.7 |
| 20260504030047 | 71 | 6 | 0.0 | 0.9 | 0.00 | 0.01 | 0.01 | 73 | 1016.6 |
| 20260504025946 | 72 | 6 | 0.0 | 0.9 | 0.00 | 0.01 | 0.01 | 73 | 1016.6 |
| 20260504025435 | 72 | 4 | 0.0 | 0.9 | 0.00 | 0.01 | 0.01 | 73 | 1016.6 |
| 20260504024922 | 72 | 91 | 0.0 | 0.9 | 0.00 | 0.01 | 0.01 | 73 | 1016.7 |
| 20260504024538 | 72 | 347 | 0.0 | 0.9 | 0.00 | 0.01 | 0.01 | 73 | 1016.6 |
| 20260504024436 | 72 | 18 | 0.0 | 0.9 | 0.00 | 0.01 | 0.01 | 73 | 1016.6 |
| 20260504023924 | 72 | 35 | 0.0 | 0.9 | 0.00 | 0.01 | 0.01 | 73 | 1016.6 |
| 20260504023432 | 72 | 36 | 0.0 | 0.9 | 0.00 | 0.01 | 0.01 | 73 | 1016.6 |
| 20260504023030 | 71 | 55 | 0.0 | 0.9 | 0.00 | 0.01 | 0.01 | 73 | 1016.5 |
| 20260504022946 | 72 | 27 | 0.0 | 0.9 | 0.00 | 0.01 | 0.01 | 73 | 1016.5 |
| 20260504022436 | 72 | 65 | 0.0 | 0.9 | 0.00 | 0.01 | 0.01 | 74 | 1016.4 |
| 20260504021926 | 72 | 65 | 0.0 | 0.0 | 0.00 | 0.01 | 0.01 | 73 | 1016.4 |
| 20260504021512 | 72 | 65 | 0.0 | 0.9 | 0.00 | 0.01 | 0.01 | 73 | 1016.3 |
| 20260504021426 | 72 | 65 | 0.0 | 0.9 | 0.00 | 0.01 | 0.01 | 73 | 1016.3 |
| 20260504020936 | 72 | 65 | 0.0 | 0.9 | 0.00 | 0.01 | 0.01 | 73 | 1016.2 |
| 20260504020431 | 72 | 65 | 0.0 | 0.9 | 0.00 | 0.01 | 0.01 | 73 | 1016.2 |
| 20260504020007 | 72 | 108 | 0.0 | 0.9 | 0.00 | 0.01 | 0.01 | 73 | 1016.1 |
| 20260504015924 | 72 | 109 | 0.0 | 0.9 | 0.00 | 0.01 | 0.01 | 73 | 1016.2 |
| 20260504015432 | 72 | 109 | 0.0 | 0.9 | 0.00 | 0.01 | 0.01 | 72 | 1016.0 |
| 20260504014929 | 72 | 109 | 0.0 | 0.9 | 0.00 | 0.01 | 0.01 | 72 | 1016.0 |
| 20260504014507 | 72 | 109 | 0.0 | 0.9 | 0.00 | 0.01 | 0.01 | 72 | 1015.8 |
| 20260504014441 | 73 | 109 | 0.0 | 0.9 | 0.00 | 0.01 | 0.01 | 72 | 1016.0 |
| 20260504013930 | 73 | 109 | 0.0 | 0.9 | 0.00 | 0.01 | 0.01 | 72 | 1016.0 |
| 20260504013427 | 73 | 108 | 0.0 | 0.9 | 0.00 | 0.01 | 0.01 | 72 | 1016.0 |
| 20260504013003 | 73 | 110 | 0.0 | 0.9 | 0.00 | 0.01 | 0.01 | 72 | 1015.7 |
| 20260504012934 | 73 | 110 | 0.0 | 0.9 | 0.00 | 0.01 | 0.01 | 72 | 1015.8 |
| 20260504012423 | 73 | 110 | 0.0 | 0.9 | 0.00 | 0.01 | 0.01 | 72 | 1015.8 |
| 20260504011938 | 73 | 76 | 0.0 | 0.0 | 0.00 | 0.01 | 0.01 | 71 | 1015.8 |
| 20260504011659 | 73 | 76 | 0.0 | 0.0 | 0.00 | 0.01 | 0.01 | 71 | 1015.6 |
| 20260504011429 | 74 | 76 | 0.0 | 0.0 | 0.00 | 0.01 | 0.01 | 71 | 1015.8 |
| 20260504010923 | 74 | 77 | 0.0 | 0.9 | 0.00 | 0.01 | 0.01 | 70 | 1015.6 |
| 20260504010431 | 74 | 77 | 0.0 | 0.9 | 0.00 | 0.01 | 0.01 | 70 | 1015.5 |
| 20260504010036 | 73 | 84 | 0.0 | 0.9 | 0.00 | 0.01 | 0.01 | 70 | 1015.4 |
| 20260504005945 | 74 | 84 | 0.0 | 0.9 | 0.00 | 0.01 | 0.01 | 70 | 1015.4 |
| 20260504005434 | 74 | 83 | 0.0 | 0.9 | 0.00 | 0.01 | 0.01 | 69 | 1015.4 |
| 20260504004923 | 74 | 83 | 0.0 | 0.0 | 0.00 | 0.01 | 0.01 | 69 | 1015.3 |
| 20260504004533 | 74 | 83 | 0.0 | 0.0 | 0.00 | 0.01 | 0.01 | 68 | 1015.3 |
| 20260504004437 | 75 | 84 | 0.0 | 0.0 | 0.00 | 0.01 | 0.01 | 68 | 1015.3 |
| 20260504003926 | 75 | 84 | 0.0 | 0.0 | 0.00 | 0.01 | 0.01 | 68 | 1015.3 |
| 20260504003436 | 75 | 84 | 0.0 | 0.0 | 0.00 | 0.01 | 0.01 | 67 | 1015.2 |
| 20260504003028 | 75 | 84 | 0.0 | 0.0 | 0.00 | 0.01 | 0.01 | 67 | 1015.0 |
| 20260504002929 | 75 | 84 | 0.0 | 0.0 | 0.00 | 0.01 | 0.01 | 67 | 1015.0 |
| 20260504002438 | 76 | 84 | 0.0 | 0.0 | 0.00 | 0.01 | 0.01 | 66 | 1015.0 |
| 20260504001930 | 76 | 84 | 0.0 | 0.0 | 0.00 | 0.01 | 0.01 | 66 | 1014.9 |
| 20260504001512 | 75 | 84 | 0.0 | 0.9 | 0.00 | 0.01 | 0.01 | 66 | 1014.8 |
| 20260504001430 | 76 | 84 | 0.0 | 0.9 | 0.00 | 0.01 | 0.01 | 65 | 1014.9 |
| 20260504000924 | 76 | 84 | 0.0 | 0.0 | 0.00 | 0.01 | 0.01 | 65 | 1014.9 |
| 20260504000441 | 77 | 84 | 0.0 | 0.9 | 0.00 | 0.01 | 0.01 | 64 | 1014.9 |
| 20260504000027 | 76 | 84 | 0.0 | 0.9 | 0.00 | 0.01 | 0.01 | 64 | 1014.7 |
| 20260503235931 | 77 | 84 | 0.0 | 0.9 | 0.00 | 0.01 | 0.01 | 64 | 1014.9 |
| 20260503235447 | 77 | 84 | 0.0 | 0.9 | 0.00 | 0.01 | 0.01 | 63 | 1014.7 |
| 20260503234936 | 78 | 84 | 0.0 | 0.9 | 0.00 | 0.01 | 0.01 | 62 | 1014.8 |
| 20260503234505 | 77 | 110 | 0.0 | 0.0 | 0.00 | 0.01 | 0.01 | 61 | 1014.7 |
| 20260503234424 | 78 | 110 | 0.0 | 0.0 | 0.00 | 0.01 | 0.01 | 61 | 1014.8 |
| 20260503233935 | 78 | 53 | 0.0 | 0.9 | 0.00 | 0.01 | 0.01 | 61 | 1014.7 |
| 20260503233430 | 79 | 6 | 0.0 | 0.9 | 0.00 | 0.01 | 0.01 | 60 | 1014.6 |
| 20260503233000 | 78 | 103 | 0.0 | 0.9 | 0.00 | 0.01 | 0.01 | 60 | 1014.6 |
| 20260503232938 | 79 | 103 | 0.0 | 0.9 | 0.00 | 0.01 | 0.01 | 60 | 1014.5 |
| 20260503232428 | 79 | 69 | 0.0 | 0.9 | 0.00 | 0.01 | 0.01 | 59 | 1014.5 |
| 20260503231924 | 80 | 71 | 0.0 | 0.9 | 0.00 | 0.01 | 0.01 | 58 | 1014.6 |
| 20260503231444 | 80 | 154 | 0.0 | 0.9 | 0.00 | 0.01 | 0.01 | 58 | 1014.6 |
| 20260503230937 | 81 | 210 | 0.0 | 0.9 | 0.00 | 0.01 | 0.01 | 57 | 1014.5 |
| 20260503230426 | 81 | 162 | 0.0 | 1.7 | 0.00 | 0.01 | 0.01 | 56 | 1014.5 |
| 20260503230043 | 81 | 150 | 0.0 | 1.7 | 0.00 | 0.07 | 0.01 | 56 | 1014.4 |
| 20260503225942 | 82 | 141 | 0.0 | 1.7 | 0.00 | 0.07 | 0.01 | 55 | 1014.5 |
| 20260503225432 | 82 | 179 | 0.0 | 0.9 | 0.00 | 0.07 | 0.01 | 55 | 1014.6 |
| 20260503224922 | 82 | 197 | 0.0 | 0.9 | 0.00 | 0.07 | 0.01 | 54 | 1014.5 |
| 20260503224544 | 82 | 286 | 0.0 | 0.9 | 0.00 | 0.07 | 0.01 | 54 | 1014.4 |
| 20260503224439 | 82 | 275 | 0.0 | 0.9 | 0.00 | 0.07 | 0.01 | 54 | 1014.5 |
| 20260503223927 | 82 | 346 | 0.0 | 0.9 | 0.00 | 0.07 | 0.01 | 55 | 1014.4 |
| 20260503223438 | 82 | 346 | 0.0 | 0.9 | 0.00 | 0.07 | 0.01 | 54 | 1014.4 |
| 20260503223037 | 82 | 345 | 0.0 | 2.6 | 0.00 | 0.07 | 0.01 | 52 | 1014.4 |
| 20260503222925 | 83 | 32 | 0.0 | 2.6 | 0.00 | 0.07 | 0.01 | 52 | 1014.4 |
| 20260503222423 | 84 | 9 | 0.0 | 2.6 | 0.00 | 0.07 | 0.01 | 49 | 1014.4 |
| 20260503221934 | 85 | 17 | 0.0 | 1.7 | 0.00 | 0.07 | 0.01 | 49 | 1014.5 |
| 20260503221515 | 85 | 10 | 0.0 | 3.5 | 0.00 | 0.07 | 0.01 | 49 | 1014.5 |
| 20260503221430 | 85 | 360 | 0.0 | 3.5 | 0.00 | 0.07 | 0.01 | 49 | 1014.5 |